Location: Limerick
(52.6800°N, 8.6400°W)
Time: 05:21:27
(UTC+01:00)

ISS - All Passes

Search period start: 25 July 2016 00:00
Search period end: 04 August 2016 00:00
Orbit: 401 x 404 km, 51.6° (Epoch: 24 July)

Date Brightness Start Highest point End Pass type
(mag) Time Alt. Az. Time Alt. Az. Time Alt. Az.
25 Jul - 01:15:26 10° WSW 01:18:38 53° SSE 01:21:49 10° E visible
25 Jul - 02:51:41 10° W 02:54:58 74° S 02:58:13 10° E visible
25 Jul - 04:28:08 10° W 04:31:12 38° SSW 04:34:15 10° SE visible
25 Jul - 06:06:14 10° SW 06:06:56 11° SW 06:07:39 10° SSW daylight
25 Jul - 22:48:52 10° SSE 22:50:01 11° SE 22:51:08 10° ESE visible
26 Jul - 00:22:42 10° SW 00:25:47 40° SSE 00:28:52 10° E visible
26 Jul - 01:58:46 10° W 02:02:02 75° S 02:05:18 10° E visible
26 Jul - 03:35:10 10° W 03:38:21 51° SSW 03:41:32 10° ESE visible
26 Jul - 05:12:08 10° WSW 05:14:17 16° SW 05:16:26 10° S daylight
26 Jul - 23:30:08 10° SSW 23:32:59 28° SSE 23:35:51 10° E visible
27 Jul - 01:05:53 10° WSW 01:09:08 69° S 01:12:23 10° E visible
27 Jul - 02:42:14 10° W 02:45:29 64° S 02:48:42 10° ESE visible
27 Jul - 04:18:51 10° W 04:21:34 24° SSW 04:24:17 10° SSE visible
27 Jul - 22:37:47 10° SSW 22:40:14 20° SSE 22:42:41 10° E visible
28 Jul - 00:13:01 10° WSW 00:16:14 57° SSE 00:19:27 10° E visible
28 Jul - 01:49:19 10° W 01:52:34 73° S 01:55:50 10° E visible
28 Jul - 03:25:47 10° W 03:28:47 34° SSW 03:31:47 10° SE visible
28 Jul - 21:45:57 10° S 21:47:32 13° SE 21:49:08 10° ESE daylight
28 Jul - 23:20:15 10° SW 23:23:23 43° SSE 23:26:30 10° E visible
29 Jul - 00:56:24 10° W 00:59:40 76° S 01:02:55 10° E visible
29 Jul - 02:32:48 10° W 02:35:57 47° SSW 02:39:06 10° SE visible
29 Jul - 04:09:56 10° WSW 04:11:50 15° SW 04:13:44 10° S night (unlit)
29 Jul - 22:27:37 10° SW 22:30:33 31° SSE 22:33:30 10° E visible
30 Jul - 00:03:29 10° WSW 00:06:44 71° S 00:09:59 10° E visible
30 Jul - 01:39:51 10° W 01:43:05 60° SSW 01:46:19 10° ESE visible
30 Jul - 03:16:33 10° W 03:19:08 22° SSW 03:21:43 10° SSE visible
30 Jul - 21:35:12 10° SSW 21:37:47 22° SSE 21:40:22 10° E daylight
30 Jul - 23:10:36 10° WSW 23:13:49 60° SSE 23:17:03 10° E visible
31 Jul - 00:46:55 10° W 00:50:10 71° S 00:53:26 10° ESE visible
31 Jul - 02:23:25 10° W 02:26:21 31° SSW 02:29:17 10° SE visible
31 Jul - 20:43:10 10° S 20:45:04 15° SE 20:46:58 10° ESE daylight
31 Jul - 22:17:48 10° SW 22:20:56 47° SSE 22:24:06 10° E visible
31 Jul - 23:53:59 10° W 23:57:15 76° S 00:00:31 10° E visible
01 Aug - 01:30:24 10° W 01:33:32 43° SSW 01:36:39 10° SE visible
01 Aug - 03:07:46 10° WSW 03:09:21 13° SW 03:10:56 10° S night (unlit)
01 Aug - 21:25:06 10° SW 21:28:06 34° SSE 21:31:06 10° E daylight
01 Aug - 23:01:03 10° W 23:04:18 73° S 23:07:34 10° E visible
02 Aug - 00:37:26 10° W 00:40:39 57° SSW 00:43:51 10° ESE visible
02 Aug - 02:14:12 10° W 02:16:39 20° SSW 02:19:05 10° SSE visible
02 Aug - 20:32:36 10° SSW 20:35:18 24° SSE 20:38:00 10° E daylight
02 Aug - 22:08:09 10° WSW 22:11:23 64° SSE 22:14:38 10° E visible
02 Aug - 23:44:29 10° W 23:47:45 69° S 23:50:59 10° ESE visible
03 Aug - 01:21:01 10° W 01:23:53 28° SSW 01:26:44 10° SSE visible
03 Aug - 19:40:25 10° S 19:42:33 16° SE 19:44:42 10° ESE daylight
03 Aug - 21:15:18 10° WSW 21:18:29 51° SSE 21:21:40 10° E daylight
03 Aug - 22:51:32 10° W 22:54:48 75° S 22:58:04 10° E visible
